User: anonymous   Login
Location: Unspecified
(0.0000°N, 0.0000°E)
Time: 08:38:52
(UTC+00:00)
Language:

USA 234 - Orbit

View from above orbital plane
View from above orbital plane
View from above satellite
View from above satellite

Ground track
Ground track

The orbit data is extracted from the following two-line orbital elements,

1 38109U 12014A   18344.22254682 0.00000000  00000-0  00000-0 0    03
2 38109 122.9975 234.2341 0003000 173.8093 186.1906 13.41404875    09
Epoch (UTC): 10 December 2018 05:20:28
Eccentricity: 0.0003000
inclination: 122.9975°
perigee height: 1102 km
apogee height: 1106 km
right ascension of ascending node: 234.2341°
argument of perigee: 173.8093°
revolutions per day: 13.41404875
mean anomaly at epoch: 186.1906°
orbit number at epoch: 0

The dashed part of the orbit path shows where the satellite is in the earth's shadow,  

DLR